Location: Syracuse
(43.0480°N, 76.1480°W)
Time: 11:00:01
(UTC-05:00)

Daily predictions for brighter satellites

Satellite Brightness Start Highest point End
(mag) Time Altitude Azimuth Time Altitude Azimuth Time Altitude Azimuth
CENTAUR R/B 2.5 18:05:01 10° SSW 18:10:58 77° ESE 18:17:50 10° NE
FALCON 9 R/B 4.1 18:06:53 10° WSW 18:12:30 52° S 18:32:21 10° ESE
CZ-4C R/B 3.8 18:06:43 10° NNW 18:12:32 28° NE 18:18:57 10° E
SL-8 R/B 4.1 18:13:34 10° W 18:18:19 62° NNW 18:23:04 10° ENE
COSMO-SKYMED 1 2.6 18:14:22 10° NNE 18:18:44 89° ESE 18:23:05 10° SSW
H-2A R/B 3.2 18:17:12 10° SE 18:20:52 40° ENE 18:24:31 10° N
FREGAT/IRIS 3.8 18:19:27 10° SE 18:21:50 22° ENE 18:24:15 10° NNE
Cosmos 1603 4.1 18:19:27 10° NNW 18:24:48 41° ENE 18:30:04 10° SE
Sich 1 Rocket 3.7 18:23:47 10° S 18:28:09 53° E 18:32:29 10° NNE
Cosmos 921 Rocket 3.1 18:25:22 10° NNW 18:29:53 67° ENE 18:34:19 10° SSE
Cosmos 44 Rocket 4.3 18:25:14 10° NW 18:30:09 54° WSW 18:35:08 10° SSE
COSMOS 2455 3.7 18:27:08 10° SSE 18:32:07 28° ESE 18:37:09 10° NE
Cosmos 1269 Rocket 4.1 18:27:08 10° S 18:32:19 59° ESE 18:37:31 10° NNE
Cosmos 1464 Rocket 3.9 18:27:05 10° N 18:33:15 80° E 18:39:24 10° S
Cosmos 1812 3.8 18:30:07 10° NNW 18:33:54 51° W 18:37:39 10° S
NOAA 12 4.3 18:30:04 10° S 18:35:23 81° WSW 18:40:45 10° NNW
Cosmos 2263 Rocket 3.3 18:31:49 10° SSE 18:35:48 21° E 18:39:49 10° NE
USA 32 4.1 18:32:04 10° SSE 18:37:10 57° E 18:42:18 10° NNE
Meteor 1-20 Rocket 4.3 18:31:45 10° S 18:37:30 88° E 18:43:21 10° N
Okean 2 Rocket 3.8 18:34:00 10° SSE 18:37:51 31° E 18:41:45 10° NNE
SJ-6B 3.6 18:35:47 10° SE 18:39:04 28° ENE 18:42:27 10° N
USA 186 3.8 18:39:20 12° ENE 18:39:20 12° ENE 18:40:38 10° NE
Iridium 4 Rocket 3.1 18:34:45 10° N 18:39:29 68° E 18:43:48 10° S
Meteor 1-4 Rocket 3.5 18:38:03 10° SSE 18:41:01 26° E 18:44:03 10° NE
ALOS 3.4 18:40:12 10° S 18:44:42 48° W 18:49:14 10° NNW
CZ-2D R/B 4.1 18:43:50 10° SE 18:47:16 30° ENE 18:50:41 10° N
Cosmos 1908 Rocket 3.9 18:43:40 10° SSW 18:48:06 71° W 18:52:34 10° N
Cosmos 1602 3.7 18:48:59 10° S 18:52:49 59° E 18:56:39 10° NNE
Okean 1 3.4 18:50:05 10° N 18:54:05 78° W 18:58:02 10° S
Cosmos 1331 Rocket 4.2 18:49:45 10° N 18:54:57 52° ENE 19:00:06 10° SE
Alouette 2 Rocket 3.8 18:57:00 10° SSE 19:00:13 33° E 19:03:43 10° NNE
ATLAS CENTAUR R/B 2.2 18:57:08 10° NNW 19:00:57 34° NE 19:02:49 24° E
YAOGAN 6 4.4 19:03:08 16° NE 19:03:08 16° NE 19:04:35 10° NNE
EO 1 Del DPAF 4.1 19:03:45 10° N 19:07:29 51° WNW 19:11:11 10° SSW
Cosmos 2227 4.2 19:01:52 10° SSW 19:07:36 87° ESE 19:13:20 10° NNE
Meteor 2-4 Rocket 3.8 19:03:38 10° N 19:09:19 56° ENE 19:14:48 10° SSE
ARGOS Delta rocket 3.9 19:05:57 10° NNE 19:10:36 51° E 19:15:00 10° S
Cosmos 2034 Rocket 4.3 19:05:07 10° NNW 19:11:29 73° W 19:17:47 10° S
Cosmos 1975 Rocket 3.3 19:09:20 10° NNW 19:13:47 72° W 19:18:13 10° S
Resurs 1-3 4.1 19:16:54 32° E 19:17:56 36° ENE 19:21:57 10° N
Cosmos 1437 Rocket 3.9 19:15:32 10° SSW 19:19:28 48° WNW 19:23:29 10° N
Cosmos 2251 Rocket 3.7 19:15:18 10° S 19:20:15 46° ESE 19:25:15 10° NNE
Cosmos 1634 Rocket 4.0 19:14:55 10° N 19:21:00 56° E 19:27:02 10° SSE
Meteor 1-19 Rocket 4.3 19:16:27 10° NNW 19:22:00 80° W 19:27:34 10° S
GPS 2-05 Rocket1 4.5 19:21:22 10° SW 19:23:37 19° S 19:23:37 19° S
SeaSat 1 2.6 19:21:53 28° ESE 19:24:16 54° ENE 19:29:06 10° NNW
Cosmos 1536 2.8 19:23:10 10° S 19:27:07 56° E 19:31:07 10° NNE
Cosmos 1302 Rocket 4.0 19:22:07 10° NNW 19:27:15 55° ENE 19:29:32 31° SE
Cosmos 1943 3.1 19:22:39 10° NNW 19:28:20 72° ENE 19:32:10 21° SE
Lacrosse 5 rocket 3.1 19:26:10 10° S 19:27:09 15° S 19:27:09 15° S
USA 215 3.4 19:27:29 25° ENE 19:31:05 50° SE 19:37:23 10° SSW
Cosmos 1184 Rocket 2.7 19:28:06 10° NNW 19:31:24 81° W 19:32:30 39° S
Cosmos 2142 Rocket 4.5 19:26:40 10° N 19:32:57 60° E 19:39:06 10° SSE
Meteor 1-11 Rocket 3.6 19:27:56 10° S 19:33:33 87° E 19:39:19 10° N
ERS-2 4.0 19:35:47 10° SSW 19:39:06 31° W 19:42:26 10° NW
Resurs 01 Rocket 1.5 19:38:44 52° ESE 19:39:28 61° ENE 19:43:51 10° N
Gbstr 26 Del rocket 3.2 19:39:35 10° WSW 19:43:15 55° NNW 19:43:57 46° NNE
Cosmos 1536 Rocket 3.4 19:39:56 10° N 19:44:22 74° E 19:45:08 58° SE
Envisat 3.3 19:46:04 10° S 19:51:05 65° WSW 19:56:10 10° NNW
Meteor 2-20 4.5 19:57:09 53° E 19:57:09 53° E 20:03:07 10° NNE
Cosmos 1939 Rocket 3.1 19:59:32 66° NNW 19:59:32 66° NNW 20:03:05 10° NNW
SL-8 R/B 4.4 19:56:49 10° WNW 20:01:23 43° N 20:01:40 42° NNE
CZ-4C R/B 2.8 19:54:46 10° NW 20:02:00 89° ENE 20:05:22 39° SE
CENTAUR R/B 4.3 19:57:01 10° W 20:02:26 28° NNW 20:08:31 10° NNE
USA 267 3.8 20:03:53 39° NE 20:05:09 43° NNE 20:11:16 10° NW
Meteor 1-23 Rocket 4.3 20:00:22 10° NNW 20:06:13 78° W 20:09:44 25° S
SL-24 DEB 4.5 20:02:35 10° N 20:06:19 58° N 20:06:19 58° N
USA 186 4.0 20:10:53 25° NW 20:10:53 25° NW 20:12:41 10° NNW
SJ-11-01 4.4 20:12:40 71° NNW 20:12:40 71° NNW 20:16:57 10° NNW
Cosmos 2180 Rocket 4.3 20:08:53 10° N 20:15:08 72° E 20:15:17 72° E
COSMOS 2455 3.6 20:11:54 10° SW 20:17:45 51° NW 20:23:20 11° NNE
Cosmos 2263 Rocket 2.7 20:13:45 10° SW 20:19:14 58° WNW 20:24:40 10° NNE
BREEZE-M DEB (TANK) 4.1 20:18:06 10° WSW 20:21:51 76° NNW 20:36:00 10° ENE
ATLAS CENTAUR R/B 3.4 20:36:11 10° WNW 20:39:07 27° W 20:39:07 27° W
Spot 2 Rocket 4.4 20:40:28 44° WSW 20:40:39 44° W 20:45:31 10° NNW
Cosmos 2279 Rocket 4.5 20:37:25 10° NNW 20:43:32 57° W 20:44:58 47° SW
H-2A R/B 4.1 20:47:17 20° N 20:47:17 20° N 20:48:56 10° N
USA 215 3.8 21:14:51 53° NW 21:14:51 53° NW 21:20:28 10° WSW
